Regional Weather Roundup
Issued by NWS Charleston, SC

Current Version | Previous Version | Graphics & Text | Print | Product List | Glossary On
Versions: 1 2 3 4 5 6 7 8 9 10 11 12 13 14 15 16 17 18 19 20 21 22 23 24 25 26 27 28 29 30 31 32 33 34 35 36 37 38 39 40 41 42 43 44 45 46 47 48 49 50
000 ASUS42 KCHS 081812 RWRCHS REGIONAL WEATHER ROUNDUP NATIONAL WEATHER SERVICE CHARLESTON SC 100 PM EST THU DEC 08 2016 NOTE: "FAIR" INDICATES FEW OR NO CLOUDS BELOW 12,000 FEET WITH NO SIGNIFICANT WEATHER AND/OR OBSTRUCTIONS TO VISIBILITY. NOT ALL STATIONS ARE QUALITY CONTROLLED. USE DATA WITH CAUTION... ESPECIALLY DEWPOINT OBSERVATIONS. SCZ027-030-031-034>040-042>050-081900- ...SOUTHEAST SOUTH CAROLINA... CITY SKY/WX TMP DP RH WIND PRES REMARKS N CHARLESTON MOSUNNY 66 48 52 W9 30.07F 6HR MIN TEMP: 52; 6HR MAX TEMP: 66; WATERFRONT PRK N/A 62 53 72 VRB3 30.06F MOUNT PLEASANT NOT AVBL JOHNS ISLAND FAIR 66 52 59 W8G14 30.07F PINOPOLIS N/A 57 52 82 NW6 29.99F MONCKS CORNER FAIR 61 48 63 N7 30.08S SUMMERVILLE FAIR 64 50 59 NW8 30.09S BEAUFORT MCAS SUNNY 64 44 48 W12G20 30.09F 6HR MIN TEMP: 52; 6HR MAX TEMP: 64; BEAUFORT ARPT FAIR 63 46 55 W9 30.09F HILTON HEAD IS SUNNY 64 45 48 SW12 30.10F WALTERBORO CLEAR 64 45 48 W10G22 30.11R ALLENDALE FAIR 59 45 58 VRB7 30.11F ...SOUTHERN MIDLANDS AND PEE DEE... CITY SKY/WX TMP DP RH WIND PRES REMARKS GEORGETOWN FAIR 59 50 72 NW7 30.07F KINGSTREE MOCLDY 61 45 55 NW8 30.07F ORANGEBURG MOSUNNY 62 44 51 NW8 30.10F 6HR MIN TEMP: 53; 6HR MAX TEMP: 62; BARNWELL NOT AVBL AIKEN FAIR 54 43 66 NW9 30.16S MANNING FAIR 61 45 55 NW9 30.08F COLUMBIA CLOUDY 56 45 66 N8 30.12F 6HR MIN TEMP: 53; 6HR MAX TEMP: 57; SUMTER PTSUNNY 55 46 71 NW10 30.08F FLORENCE CLOUDY 57 49 74 N12 30.09F 6HR MIN TEMP: 52; 6HR MAX TEMP: 60; MYRTLE BEACH NOT AVBL N MYRTLE BEACH CLOUDY 57 51 80 NW6 30.06F 6HR MIN TEMP: 49; 6HR MAX TEMP: 58; $$ GAZ063-065-086>088-099>101-113>116-118-119-134>141-150-081900- ...SOUTHEAST GEORGIA... CITY SKY/WX TMP DP RH WIND PRES REMARKS SAVANNAH ARPT PTSUNNY 64 41 42 W13 30.12F 6HR MIN TEMP: 49; 6HR MAX TEMP: 64; HUNTER AAF SUNNY 64 49 57 NW12 30.09F 6HR MIN TEMP: 47; 6HR MAX TEMP: 64; FORT STEWART SUNNY 62 41 46 W9 30.11F 6HR MIN TEMP: 49; 6HR MAX TEMP: 62; STATESBORO SUNNY 62 44 51 NW12G18 30.14S SYLVANIA CLEAR N/A N/A N/A NW12 30.14S CLAXTON FAIR 62 44 53 W12 30.14F ...CSRA...CENTRAL AND FAR SOUTHEAST GEORGIA... CITY SKY/WX TMP DP RH WIND PRES REMARKS THOMSON SUNNY 60 43 54 W8 30.19F AUGUSTA-BUSH SUNNY 59 42 53 N10 30.13F 6HR MIN TEMP: 47; 6HR MAX TEMP: 60; AUGUSTA-DANIEL SUNNY 57 41 55 N9 30.14F SWAINSBORO FAIR 59 37 44 W7 30.16F VIDALIA SUNNY 63 43 48 NW7 30.15F EASTMAN FAIR 61 20 20 NW5 30.21F HAZLEHURST FAIR 63 38 40 NW6 30.15F ALMA NOT AVBL WAYCROSS SUNNY 65 51 60 N10 30.15F JESUP FAIR 63 46 55 NW15 30.15F BAXLEY FAIR 63 43 48 NW13G20 30.15F BRUNSWICK SUNNY 63 52 67 W8 30.14F SAINT SIMONS SUNNY 60 48 64 NW7 30.12F 6HR MIN TEMP: 50; 6HR MAX TEMP: 61; $$ SCZ027-028-034-036>038-045-046-048>050-GAZ119-141-081900- ...LAKE AND SUPPLEMENTAL COASTAL OBSERVATIONS... STATION/POSITION TIME TEMP WIND PRES WAVE SWELL AIR SEA DIR/SP/G HT/PER HT/PER/DIR (UTC) (F) (DEG/KT/KT) (MB) (FT/S) (FT/S/D) WINYAH BAY 1645 58 280/ 5 1019.0 LAKE MURRAY 1720 55 300/ 4/ 8 1019.6 ACE BASIN NERRS 1645 61 280/ 4 1019.0 FORT PULASKI 1736 59 62 320/ 11/ 14 1019.7F SAPELO ISLAND 1700 59 290/ 9 1021.0 $$ ANZ835-935-AMZ111-154-330-350-352-354-370-450-454-472-081900- ...C-MAN AND BUOY OBSERVATIONS... STATION/POSITION TIME TEMP WIND PRES WAVE SWELL AIR SEA DIR/SP/G HT/PER HT/PER/DIR (UTC) (F) (DEG/KT/KT) (MB) (FT/S) (FT/S/D) BUOY 41004 1750 60 74 320/ 14/ 17 1017.5F 3/ 4 2/ 70/ 9 BUOY 41008 1750 57 64 270/ 12/ 14 1019.7F 2/ 4 2/ 40/12 FOLLY BEACH CMAN 1700 61 300/ 4/ 6 1019.5F CAPERS NEARSHORE 1708 57 61 320/ 8/ 10 1018.5F FRIPP NEARSHORE 1708 59 62 300/ 10/ 14 1019.0F STATION/POSITION TIME TEMP WIND PRES WAVE SWELL AIR SEA DIR/SP/G HT/PER HT/PER/DIR (UTC) (F) (DEG/KT/KT) (MB) (FT/S) (FT/S/D) 5E ST. MARYS GA 1730 66 N/A 2/10 FRYING PAN BUOY 1750 61 74 290/ 16/ 19 1017.3F 3/10 2/ 60/10 BUOY 41025 1750 63 78 250/ 19/ 25 1015.0F 4/11 3/ 90/11 CAPE LOOKOUT NC 1700 56 270/ 16/ 20 1016.8F BUOY 41002 1750 73 74 260/ 12/ 14 1016.3F 5/10 3/ 20/10 BUOY 41010 NOT AVBL ST AUGUSTINE FL 1800 62 67 340/ 9/ 11 1020.9F $$

USA.gov is the U.S. government's official web portal to all federal, state and local government web resources and services.